OBJECT X, 43897

Orbit data source: Space-Track

You're viewing an Uncataloged Satellite

Recently launched and/or uncataloged satellites may have evolving metadata. Metadata may include but not limited to: Owner, Maufacturer, Bus, Motor, and Mission.

OBJECT X, 43897 is a satellite in LEO that was launched on Thu, 27 Dec 2018 UTC via a SOYUZ-2-1A launch vehicle from the Vostochny Cosmodrome (VOSTO). Unknown objects in Earth's orbit typically refer to objects detected orbiting the Earth but have not yet been identified or cataloged. These objects could be anything from previously untracked satellites, spent rocket stages, debris from satellite collisions, or even natural meteoroids temporarily captured by Earth's gravity.

Loading next visibility...
OBJECT X details
Identifier
43897, 2018-111X
Orbit
LEO
Last TLE update5 hours ago
Origin
Flag of TBDRoskosmos (TBD)
ManufacturerRoskosmos
MissionSpacecraft
Bus & MotorUnknown
Mass10 kg wet, 10 kg dry
Launch date (UTC)
2018-12-27 (6 years ago)
Launch vehicle
SOYUZ-2-1A
Launch site
Vostochny Cosmodrome (VOSTO)
Object typeUnknown
Shape & HBRBox, 0.3 m
Radar Cross Section0.080 m², Medium (>0.1 m² and < 1m²)

Expand to show TLE details & history

TLE from 5 hours ago
0 OBJECT X
1 43897U 18111X   24337.12436909  .00030719  00000-0  56297-3 0  9998
2 43897  97.0465 200.4583 0015202  92.9026 267.3966 15.49124623331018
Epoch: 2024-12-02T02:59Z
Definitive object data (Epoch: 2024-12-02T02:59:05.489Z)
Latitude-0.00001°
Longitude84.2327°
Altitude422.911 km
Speed7.657 km/s
True Right ascension13h 21m 49s
True Declination0° 00' 00"
Sunlit
Object was in daylight at TLE epoch
Visualization TLE readout
Latitude-10.97249°
Longitude-96.91033°
Altitude426.019 km
Speed7.654 km/s
Apparent Right ascension22h 31m 31s
Apparent Declination-36° 58' 07"
Sunlit
Object is in full shadow
Visualization observer readout
Local Sidereal Time06:13:34
Azimuth251.559° W
Elevation-40.528°
Doppler factor1
Orbital elements
Apogee altitude426.526 km
Perigee altitude405.869 km
Semi-major axis6,794.334 km
Eccentricity0.0015202
Inclination97.0465°
RAAN200.4583°
Arg. of periapsis92.9026°
True anomaly267.22259°
Mean anomaly267.3966°
Eccentric anomaly267.30959°
Mean motion3.87546 °/min
BSTAR0.00056297
Orbital period92.89 mins
Loading maneuver chart data...
Loading historical data...
Loading historical data...
Loading historical data...
Loading historical data...
Loading historical data...
Loading historical data...
Loading historical data...

OBJECT X Visibility forecast

Observer location: undefined°, undefined

Span
Click to sort rows by Start time (UTC) header in descending order
Start Az.
Max El. time (UTC)
Max El. Az.
Max El.
End time (UTC)
End Az.
5 mins2024-12-02 15:31:20.128Z196.726° SSW2024-12-02 15:33:20.128Z257.417° W33.01°2024-12-02 15:36:20.128Z333.112° NNW
4 mins2024-12-03 04:21:20.128Z342.874° N2024-12-03 04:23:20.128Z271.258° WNW30.856°2024-12-03 04:25:20.128Z221.512° SW
|